Brumley, MO

6:17 AM CDT on September 28, 2016 (GMT -0500)
Fine Memorial

Weather History for KAIZ - March, 2013

Change the Weather History Date:

Sunday, March 17, 2013

  Actual Average Record
Temperature  
Mean Temperature 35 °F -  
Max Temperature 37 °F 53 °F 80 °F (2009)
Min Temperature 33 °F 33 °F 12 °F (2014)
Degree Days  
Heating Degree Days 30    
Moisture  
Dew Point 32 °F    
Average Humidity 89    
Maximum Humidity 93    
Minimum Humidity 81    
Precipitation  
Precipitation 1.12 in - - ()
Sea Level Pressure  
Sea Level Pressure 29.94 in    
Wind  
Wind Speed 10 mph (ENE)    
Max Wind Speed 15 mph    
Max Gust Speed 22 mph    
Visibility 6 miles    
Events      
Averages and records for this station are not official NWS values.
T = Trace of Precipitation, MM = Missing Value Source: NWS Daily Summary

Daily Weather History Graph

Daily Weather History Graph

Search for Another Location

Airport or City:

Trip Planner

Search our weather history database for the weather conditions in past years. The results will help you decide how hot, cold, wet, or windy it might be!

Date:

Astronomy

Mar. 17, 2013 Rise Set
Actual Time 7:17 AM CDT 7:19 PM CDT
Civil Twilight 6:51 AM CDT 7:45 PM CDT
Nautical Twilight 6:21 AM CDT 8:16 PM CDT
Astronomical Twilight 5:50 AM CDT 8:47 PM CDT
Moon 10:36 AM CDT (3/17) 12:22 AM CDT (3/17)
Length of Visible Light 12h 54m
Length of Day
12h 01m
Waxing Crescent, 31% of the Moon is Illuminated
Mar 17
Waxing Crescent
Mar 19
First Quarter
Mar 27
Full
Apr 2
Last Quarter
Apr 10
New

Hourly Weather History & Observations

Time (CDT) Temp. Windchill Dew Point Humidity Pressure Visibility Wind Dir Wind Speed Gust Speed Precip Events Conditions
12:15 AM 37.4 °F 30.3 °F 33.8 °F 87% 30.03 in 4.0 mi NE 10.4 mph 18.4 mph 0.01 in   Overcast
12:35 AM 37.4 °F 30.3 °F 33.8 °F 87% 30.02 in 4.0 mi NE 10.4 mph 16.1 mph 0.01 in   Overcast
12:55 AM 37.4 °F 30.8 °F 33.8 °F 87% 30.03 in 6.0 mi NNE 9.2 mph - 0.02 in   Overcast
1:15 AM 37.4 °F 31.4 °F 33.8 °F 87% 30.02 in 5.0 mi NNE 8.1 mph 16.1 mph N/A   Overcast
1:35 AM 37.4 °F 31.4 °F 33.8 °F 87% 30.05 in 7.0 mi NE 8.1 mph 16.1 mph N/A   Overcast
1:55 AM 35.6 °F 27.5 °F 33.8 °F 93% 30.04 in 5.0 mi NE 11.5 mph 16.1 mph 0.03 in   Overcast
2:15 AM 35.6 °F 26.6 °F 33.8 °F 93% 30.02 in 5.0 mi NE 13.8 mph 18.4 mph N/A   Overcast
2:35 AM 35.6 °F 28.0 °F 33.8 °F 93% 30.03 in 7.0 mi NE 10.4 mph - N/A   Overcast
2:55 AM 35.6 °F 26.6 °F 33.8 °F 93% 30.03 in 6.0 mi ENE 13.8 mph - 0.01 in   Overcast
3:15 AM 35.6 °F 28.0 °F 33.8 °F 93% 30.03 in 7.0 mi ENE 10.4 mph - N/A   Overcast
3:35 AM 35.6 °F 27.5 °F 33.8 °F 93% 30.01 in 6.0 mi NE 11.5 mph 17.3 mph N/A   Overcast
3:55 AM 35.6 °F 27.5 °F 33.8 °F 93% 30.02 in 5.0 mi ENE 11.5 mph 17.3 mph 0.01 in   Overcast
4:15 AM 35.6 °F 29.2 °F 33.8 °F 93% 30.04 in 6.0 mi ENE 8.1 mph - N/A   Overcast
4:35 AM 35.6 °F 27.5 °F 32.0 °F 87% 30.02 in 5.0 mi ENE 11.5 mph - 0.03 in   Overcast
4:55 AM 35.6 °F 26.2 °F 32.0 °F 87% 30.01 in 4.0 mi ENE 15.0 mph 18.4 mph 0.07 in   Overcast
5:15 AM 35.6 °F 28.6 °F 32.0 °F 87% 30.02 in 3.0 mi NE 9.2 mph - 0.07 in   Overcast
5:35 AM 33.8 °F 24.3 °F 30.2 °F 87% 30.02 in 5.0 mi ENE 13.8 mph 20.7 mph 0.12 in   Overcast
5:55 AM 33.8 °F 24.3 °F 30.2 °F 87% 30.02 in 4.0 mi East 13.8 mph - 0.17 in   Overcast
6:15 AM 33.8 °F 25.3 °F 30.2 °F 87% 30.02 in 5.0 mi ENE 11.5 mph 18.4 mph 0.02 in   Overcast
6:35 AM 33.8 °F 24.8 °F 30.2 °F 87% 30.05 in 5.0 mi ENE 12.7 mph - 0.08 in   Overcast
6:55 AM 33.8 °F 24.3 °F 30.2 °F 87% 30.06 in 7.0 mi ENE 13.8 mph - 0.12 in   Overcast
7:15 AM 33.8 °F 25.3 °F 28.4 °F 81% 30.05 in 6.0 mi ENE 11.5 mph - 0.02 in   Overcast
7:35 AM 33.8 °F 25.8 °F 30.2 °F 87% 30.05 in 6.0 mi NE 10.4 mph - 0.05 in   Overcast
7:55 AM 33.8 °F 24.3 °F 28.4 °F 81% 30.02 in 4.0 mi East 13.8 mph - 0.07 in   Overcast
8:15 AM 33.8 °F 25.8 °F 30.2 °F 87% 30.03 in 4.0 mi East 10.4 mph - 0.02 in   Overcast
8:35 AM 33.8 °F 25.8 °F 30.2 °F 87% 30.03 in 5.0 mi East 10.4 mph - 0.03 in   Overcast
8:55 AM 33.8 °F 23.9 °F 30.2 °F 87% 30.01 in 5.0 mi East 15.0 mph 20.7 mph 0.03 in   Overcast
9:15 AM 33.8 °F 25.8 °F 30.2 °F 87% 30.03 in 3.0 mi East 10.4 mph 17.3 mph 0.02 in   Overcast
9:35 AM 33.8 °F 26.4 °F 30.2 °F 87% 30.02 in 5.0 mi East 9.2 mph - 0.04 in   Mostly Cloudy
9:55 AM 33.8 °F 26.4 °F 30.2 °F 87% 30.02 in 5.0 mi East 9.2 mph - 0.05 in   Overcast
10:15 AM 33.8 °F 27.0 °F 30.2 °F 87% 30.02 in 7.0 mi East 8.1 mph - N/A   Overcast
10:35 AM 33.8 °F 25.8 °F 30.2 °F 87% 30.02 in 9.0 mi East 10.4 mph - N/A   Overcast
10:55 AM 33.8 °F 25.8 °F 30.2 °F 87% 30.01 in 8.0 mi East 10.4 mph - N/A   Overcast
11:15 AM 33.8 °F 26.4 °F 30.2 °F 87% 30.02 in 9.0 mi East 9.2 mph - N/A   Overcast
11:35 AM 33.8 °F 27.0 °F 30.2 °F 87% 30.01 in 8.0 mi ENE 8.1 mph - N/A   Overcast
11:55 AM 33.8 °F 27.0 °F 30.2 °F 87% 30.01 in 9.0 mi ENE 8.1 mph - N/A   Overcast
12:15 PM 33.8 °F 26.4 °F 30.2 °F 87% 29.99 in 5.0 mi East 9.2 mph - 0.01 in   Overcast
12:35 PM 33.8 °F 26.4 °F 30.2 °F 87% 29.98 in 7.0 mi East 9.2 mph - 0.01 in   Overcast
12:55 PM 33.8 °F 27.0 °F 30.2 °F 87% 29.98 in 8.0 mi ENE 8.1 mph - 0.01 in   Overcast
1:15 PM 33.8 °F 25.8 °F 30.2 °F 87% 29.98 in 7.0 mi ENE 10.4 mph - N/A   Overcast
1:35 PM 33.8 °F 25.8 °F 30.2 °F 87% 29.96 in 7.0 mi East 10.4 mph - 0.01 in   Overcast
1:55 PM 33.8 °F 25.3 °F 30.2 °F 87% 29.93 in 7.0 mi ENE 11.5 mph 17.3 mph 0.01 in   Overcast
2:15 PM 33.8 °F 25.8 °F 30.2 °F 87% 29.93 in 9.0 mi East 10.4 mph 16.1 mph N/A   Overcast
2:35 PM 33.8 °F 25.3 °F 30.2 °F 87% 29.91 in 9.0 mi East 11.5 mph - N/A   Overcast
2:55 PM 33.8 °F 25.3 °F 30.2 °F 87% 29.91 in 10.0 mi ENE 11.5 mph - N/A   Overcast
3:15 PM 33.8 °F 24.8 °F 30.2 °F 87% 29.89 in 10.0 mi ENE 12.7 mph - N/A   Overcast
3:35 PM 33.8 °F 27.7 °F 30.2 °F 87% 29.89 in 3.0 mi NNE 6.9 mph - 0.02 in   Overcast
3:55 PM 33.8 °F 26.4 °F 30.2 °F 87% 29.89 in 1.5 mi East 9.2 mph - 0.07 in   Overcast
4:15 PM 33.8 °F 24.8 °F 30.2 °F 87% 29.86 in 2.0 mi East 12.7 mph 17.3 mph 0.06 in   Overcast
4:35 PM 33.8 °F 24.8 °F 30.2 °F 87% 29.83 in 1.5 mi East 12.7 mph 21.9 mph 0.15 in   Overcast
4:55 PM 33.8 °F 25.8 °F 32.0 °F 93% 29.83 in 1.5 mi East 10.4 mph 19.6 mph 0.24 in   Overcast
5:15 PM 33.8 °F 24.8 °F 32.0 °F 93% 29.81 in 6.0 mi East 12.7 mph 18.4 mph 0.01 in   Overcast
5:35 PM 35.6 °F 28.6 °F 32.0 °F 87% 29.84 in 5.0 mi NE 9.2 mph - 0.02 in   Overcast
5:55 PM 35.6 °F 27.5 °F 30.2 °F 81% 29.82 in 4.0 mi East 11.5 mph - 0.06 in   Overcast
6:15 PM 35.6 °F 27.1 °F 32.0 °F 87% 29.80 in 3.0 mi East 12.7 mph 16.1 mph 0.03 in   Overcast
6:35 PM 35.6 °F 28.6 °F 32.0 °F 87% 29.78 in 7.0 mi East 9.2 mph 20.7 mph 0.03 in   Overcast
6:55 PM 35.6 °F 28.0 °F 32.0 °F 87% 29.80 in 10.0 mi East 10.4 mph - 0.03 in   Overcast
7:15 PM 35.6 °F 30.7 °F 32.0 °F 87% 29.81 in 8.0 mi East 5.8 mph - 0.01 in   Overcast
7:35 PM 35.6 °F 28.6 °F 32.0 °F 87% 29.80 in 4.0 mi East 9.2 mph - 0.04 in   Overcast
7:55 PM 35.6 °F 28.6 °F 32.0 °F 87% 29.79 in 5.0 mi East 9.2 mph - 0.07 in   Overcast
8:15 PM 35.6 °F 30.7 °F 33.8 °F 93% 29.80 in 10.0 mi ENE 5.8 mph - N/A   Overcast
8:35 PM 35.6 °F 28.6 °F 32.0 °F 87% 29.79 in 10.0 mi East 9.2 mph - N/A   Overcast
8:55 PM 35.6 °F 29.9 °F 33.8 °F 93% 29.80 in 10.0 mi ENE 6.9 mph - N/A   Overcast
9:15 PM 35.6 °F 29.2 °F 33.8 °F 93% 29.79 in 6.0 mi ENE 8.1 mph - 0.01 in   Overcast
9:35 PM 35.6 °F 31.7 °F 33.8 °F 93% 29.79 in 5.0 mi ENE 4.6 mph - 0.03 in   Overcast
9:55 PM 35.6 °F 29.9 °F 33.8 °F 93% 29.79 in 6.0 mi ENE 6.9 mph - 0.04 in   Overcast
10:15 PM 35.6 °F 29.9 °F 33.8 °F 93% 29.79 in 6.0 mi East 6.9 mph - 0.01 in   Overcast
10:35 PM 35.6 °F 29.9 °F 33.8 °F 93% 29.78 in 6.0 mi East 6.9 mph - 0.01 in   Overcast
10:55 PM 35.6 °F 30.7 °F 33.8 °F 93% 29.78 in 5.0 mi NE 5.8 mph - 0.01 in   Overcast
11:15 PM 35.6 °F 30.7 °F 33.8 °F 93% 29.77 in 5.0 mi ENE 5.8 mph - N/A   Overcast
11:35 PM 35.6 °F 31.7 °F 33.8 °F 93% 29.77 in 5.0 mi ENE 4.6 mph - N/A   Overcast
11:55 PM 35.6 °F 30.7 °F 33.8 °F 93% 29.76 in 5.0 mi East 5.8 mph - N/A   Overcast